TimeEST,TemperatureF,Dew PointF,Humidity,Sea Level PressureIn,VisibilityMPH,Wind Direction,Wind SpeedMPH,Gust SpeedMPH,PrecipitationIn,Events,Conditions,WindDirDegrees,DateUTC
12:04 AM,48.2,46.4,93,30.22,8.0,SSW,4.6,-,0.00,Rain,Light Rain,200,2008-12-17 05:04:00
12:21 AM,46.4,46.4,100,30.21,7.0,South,5.8,-,0.00,Rain,Light Rain,170,2008-12-17 05:21:00
12:43 AM,46.4,46.4,100,30.21,7.0,South,5.8,-,0.01,Rain,Light Rain,170,2008-12-17 05:43:00
12:54 AM,46.9,46.9,100,30.17,7.0,Calm,Calm,-,0.01,Rain,Light Rain,0,2008-12-17 05:54:00
1:54 AM,46.9,46.9,100,30.16,4.0,South,6.9,-,0.03,Rain,Light Rain,180,2008-12-17 06:54:00
2:02 AM,46.4,46.4,100,30.18,4.0,South,9.2,-,0.00,Rain,Light Rain,170,2008-12-17 07:02:00
2:29 AM,46.4,46.4,100,30.19,5.0,South,4.6,-,0.01,Rain,Light Rain,170,2008-12-17 07:29:00
2:54 AM,46.9,46.9,100,30.16,4.0,South,4.6,-,0.02,Rain,Light Rain,170,2008-12-17 07:54:00
3:50 AM,48.2,48.2,100,30.18,6.0,Calm,Calm,-,0.01,Rain,Light Rain,0,2008-12-17 08:50:00
3:54 AM,48.0,48.0,100,30.16,5.0,Calm,Calm,-,0.01,Rain,Light Rain,0,2008-12-17 08:54:00
4:40 AM,48.2,48.2,100,30.18,9.0,SSE,4.6,-,0.01,,Overcast,150,2008-12-17 09:40:00
4:49 AM,48.2,48.2,100,30.18,10.0,South,4.6,-,0.01,,Overcast,170,2008-12-17 09:49:00
4:54 AM,48.0,48.0,100,30.16,10.0,South,4.6,-,0.01,,Overcast,180,2008-12-17 09:54:00
5:03 AM,48.2,48.2,100,30.18,10.0,SSW,4.6,-,N/A,,Overcast,200,2008-12-17 10:03:00
5:54 AM,48.0,48.0,100,30.16,10.0,Calm,Calm,-,N/A,,Overcast,0,2008-12-17 10:54:00
6:14 AM,48.2,48.2,100,30.17,10.0,South,5.8,-,N/A,,Overcast,190,2008-12-17 11:14:00
6:22 AM,48.2,48.2,100,30.17,10.0,SSE,4.6,-,N/A,,Overcast,150,2008-12-17 11:22:00
6:54 AM,51.1,50.0,96,30.16,10.0,SSE,6.9,-,N/A,,Overcast,150,2008-12-17 11:54:00
7:38 AM,51.8,51.8,100,30.19,10.0,Calm,Calm,-,N/A,,Overcast,0,2008-12-17 12:38:00
7:54 AM,51.1,51.1,100,30.17,10.0,SSE,4.6,-,N/A,,Overcast,160,2008-12-17 12:54:00
8:06 AM,51.8,51.8,100,30.19,10.0,Calm,Calm,-,N/A,,Overcast,0,2008-12-17 13:06:00
8:54 AM,53.1,52.0,96,30.17,10.0,SSE,6.9,-,N/A,,Mostly Cloudy,150,2008-12-17 13:54:00
9:03 AM,51.8,51.8,100,30.19,10.0,SSE,5.8,-,N/A,,Mostly Cloudy,150,2008-12-17 14:03:00
9:13 AM,53.6,51.8,94,30.20,10.0,SSE,4.6,-,N/A,,Mostly Cloudy,150,2008-12-17 14:13:00
9:54 AM,55.9,54.0,93,30.18,10.0,SSE,8.1,-,N/A,,Overcast,150,2008-12-17 14:54:00
10:23 AM,59.0,57.2,94,30.21,10.0,South,8.1,16.1,N/A,,Overcast,190,2008-12-17 15:23:00
10:54 AM,60.1,57.0,90,30.17,10.0,South,9.2,-,N/A,,Mostly Cloudy,180,2008-12-17 15:54:00
11:54 AM,63.0,57.9,84,30.13,10.0,SSW,9.2,-,N/A,,Overcast,200,2008-12-17 16:54:00
12:54 PM,64.9,57.9,78,30.12,10.0,SSW,9.2,-,N/A,,Overcast,210,2008-12-17 17:54:00
1:54 PM,64.0,57.9,80,30.11,10.0,SSW,4.6,-,0.00,,Overcast,210,2008-12-17 18:54:00
2:54 PM,63.0,57.9,84,30.11,10.0,SSW,5.8,-,N/A,,Overcast,210,2008-12-17 19:54:00
3:54 PM,63.0,57.9,84,30.12,10.0,NW,3.5,-,N/A,,Overcast,310,2008-12-17 20:54:00
4:54 PM,61.0,57.0,87,30.14,10.0,NW,5.8,-,N/A,,Overcast,320,2008-12-17 21:54:00
5:54 PM,60.1,57.9,93,30.17,10.0,North,4.6,-,N/A,,Overcast,350,2008-12-17 22:54:00
6:13 PM,59.0,57.2,94,30.21,10.0,NNW,5.8,-,0.00,,Overcast,340,2008-12-17 23:13:00
6:54 PM,59.0,57.9,96,30.18,10.0,Calm,Calm,-,0.00,,Mostly Cloudy,0,2008-12-17 23:54:00
7:03 PM,59.0,57.2,94,30.21,10.0,Calm,Calm,-,N/A,,Overcast,0,2008-12-18 00:03:00
7:17 PM,59.0,57.2,94,30.22,10.0,WNW,4.6,-,N/A,,Overcast,300,2008-12-18 00:17:00
7:54 PM,57.9,57.9,100,30.20,7.0,Calm,Calm,-,0.00,Rain,Light Rain,0,2008-12-18 00:54:00
8:50 PM,57.2,57.2,100,30.23,10.0,Calm,Calm,-,0.01,,Overcast,0,2008-12-18 01:50:00
8:54 PM,57.9,57.0,97,30.20,10.0,Calm,Calm,-,0.01,,Overcast,0,2008-12-18 01:54:00
9:33 PM,57.2,57.2,100,30.22,10.0,NNW,3.5,-,N/A,,Overcast,340,2008-12-18 02:33:00
9:44 PM,57.2,55.4,94,30.22,10.0,NNW,6.9,-,N/A,,Mostly Cloudy,330,2008-12-18 02:44:00
9:54 PM,57.0,55.9,96,30.19,10.0,NNW,6.9,-,N/A,,Overcast,330,2008-12-18 02:54:00
10:02 PM,57.2,55.4,94,30.22,10.0,NNW,8.1,-,N/A,,Mostly Cloudy,330,2008-12-18 03:02:00
10:18 PM,55.4,55.4,100,30.22,10.0,NW,3.5,-,N/A,,Scattered Clouds,310,2008-12-18 03:18:00
10:35 PM,55.4,55.4,100,30.23,10.0,NNW,6.9,-,N/A,,Mostly Cloudy,330,2008-12-18 03:35:00
10:54 PM,57.0,55.9,96,30.19,10.0,Calm,Calm,-,N/A,,Overcast,0,2008-12-18 03:54:00
11:54 PM,57.0,55.9,96,30.19,10.0,Calm,Calm,-,N/A,,Overcast,0,2008-12-18 04:54:00